This is the latest recevied weather packets stored in our database for station/object WY1B. If no packets are shown the sender has not sent any weather packets the latest 10 day(s).
| Time | Temp. | Humidity | Pressure | Rain* | Wind** | Luminosity | Snow |
|---|---|---|---|---|---|---|---|
| 1787930163 | 34.44° C | 32% | 1006.9 hPa | 0 mm | - | 62 W/m² | - |
| 1787929862 | 34.44° C | 32% | 1007 hPa | 0 mm | - | 60 W/m² | - |
| 1787929557 | 33.89° C | 32% | 1006.9 hPa | 0 mm | - | 59 W/m² | - |
| 1787929256 | 33.89° C | 34% | 1006.8 hPa | 0 mm | - | 59 W/m² | - |
| 1787928955 | 33.33° C | 34% | 1006.7 hPa | 0 mm | - | 57 W/m² | - |
| 1787928650 | 33.33° C | 35% | 1006.7 hPa | 0 mm | - | 54 W/m² | - |
| 1787928348 | 32.78° C | 35% | 1006.8 hPa | 0 mm | - | 54 W/m² | - |
| 1787928047 | 32.78° C | 36% | 1006.7 hPa | 0 mm | - | 55 W/m² | - |
| 1787927747 | 32.78° C | 36% | 1006.8 hPa | 0 mm | - | 48 W/m² | - |
| 1787927442 | 32.78° C | 36% | 1006.5 hPa | 0 mm | - | 42 W/m² | - |
| 1787927138 | 32.78° C | 36% | 1006.6 hPa | 0 mm | - | 37 W/m² | - |
| 1787926837 | 32.78° C | 35% | 1006.3 hPa | 0 mm | - | 36 W/m² | - |
| 1787926537 | 32.78° C | 36% | 1006.6 hPa | 0 mm | - | 36 W/m² | - |
| 1787926235 | 32.78° C | 36% | 1006.5 hPa | 0 mm | - | 46 W/m² | - |
| 1787925931 | 32.78° C | 36% | 1006.3 hPa | 0 mm | - | 42 W/m² | - |
| 1787925631 | 32.22° C | 36% | 1006.6 hPa | 0 mm | - | 42 W/m² | - |
| 1787925326 | 32.22° C | 37% | 1006.4 hPa | 0 mm | - | 46 W/m² | - |
| 1787925024 | 32.22° C | 37% | 1006.1 hPa | 0 mm | - | 43 W/m² | - |
| 1787924720 | 31.67° C | 36% | 1006.1 hPa | 0 mm | - | 37 W/m² | - |
| 1787924419 | 31.67° C | 37% | 1005.9 hPa | 0 mm | - | 33 W/m² | - |
| 1787924115 | 31.67° C | 35% | 1006 hPa | 0 mm | - | 28 W/m² | - |
| 1787923809 | 31.67° C | 37% | 1005.7 hPa | 0 mm | - | 23 W/m² | - |
| 1787923504 | 31.67° C | 36% | 1005.7 hPa | 0 mm | - | 18 W/m² | - |
| 1787923199 | 32.22° C | 39% | 1005.7 hPa | 0 mm | - | 13 W/m² | - |
| 1787922895 | 32.22° C | 34% | 1005.8 hPa | 0 mm | - | 9 W/m² | - |
* Rain latest hour (hover to see other rain measurements)
** Current wind speed in m/s (hover to see current wind gust speed)